GTRIP EGLC-GCXO

Flight info

Callsign GTRIP
Flight time N/A
Altitude 47000
Route SAXBI N27 ICTAM Q63 CPT Y321 PEPIS/N0497F430 Q41 SAM N63 LELNA/N0496F410 DCT BALDA/N0476F230 N480 MAVOS M30 VES N872 RALUS UN872 BEXAL/N0494F450 UN866 KONBA
Aircraft C750/M-SBDE3FGHRWXY/S

Departure

Time 2026-05-06 09:03
Airport London City Airport (EGLC)

Arrival

Time N/A
Airport Tenerife Norte-Ciudad de La Laguna Airport (GCXO)
Time Latitude Longitude Altitude Speed Heading
2026-05-06 08:42 51.50455 0.04365 23 ft 0 kts 349°
2026-05-06 08:58 51.50462 0.04364 24 ft 3 kts 359°
2026-05-06 08:58 51.50484 0.04373 22 ft 3 kts 28°
2026-05-06 08:59 51.50486 0.04399 22 ft 3 kts 92°
2026-05-06 08:59 51.50487 0.04431 22 ft 2 kts 70°
2026-05-06 08:59 51.50490 0.04437 23 ft 0 kts 53°
2026-05-06 09:01 51.50501 0.04441 22 ft 3 kts
2026-05-06 09:01 51.50539 0.04444 22 ft 6 kts 15°
2026-05-06 09:01 51.50555 0.04476 22 ft 4 kts 75°
2026-05-06 09:02 51.50555 0.04524 22 ft 19 kts 93°
2026-05-06 09:02 51.50532 0.05280 22 ft 117 kts 93°
2026-05-06 09:02 51.50473 0.06883 181 ft 158 kts 94°
2026-05-06 09:02 51.50352 0.08785 356 ft 190 kts 97°
2026-05-06 09:03 51.50244 0.11062 642 ft 220 kts 84°
2026-05-06 09:03 51.51008 0.13195 1192 ft 226 kts 36°
2026-05-06 09:03 51.52403 0.13908 2280 ft 197 kts
2026-05-06 09:03 51.53733 0.13615 2943 ft 199 kts 338°
2026-05-06 09:04 51.54894 0.12330 2986 ft 204 kts 310°
2026-05-06 09:04 51.55754 0.10544 3017 ft 202 kts 305°
2026-05-06 09:04 51.56660 0.08744 3678 ft 203 kts 309°
2026-05-06 09:04 51.57585 0.07096 4739 ft 200 kts 310°
2026-05-06 09:05 51.58676 0.05575 5264 ft 221 kts 324°
2026-05-06 09:05 51.59583 0.04694 5521 ft 239 kts 327°
2026-05-06 09:05 51.61532 0.02836 6107 ft 266 kts 327°
2026-05-06 09:05 51.62564 0.01800 6678 ft 263 kts 326°
2026-05-06 09:06 51.64109 0.00083 6961 ft 275 kts 315°
2026-05-06 09:06 51.64987 -0.02569 6957 ft 280 kts 279°
2026-05-06 09:06 51.64746 -0.05628 7986 ft 267 kts 254°
2026-05-06 09:06 51.64142 -0.08459 8875 ft 272 kts 251°
2026-05-06 09:07 51.63491 -0.11391 9015 ft 278 kts 251°
2026-05-06 09:07 51.62841 -0.14304 9003 ft 277 kts 251°
2026-05-06 09:07 51.62183 -0.17250 9001 ft 276 kts 251°
2026-05-06 09:07 51.61543 -0.20115 8997 ft 275 kts 251°
2026-05-06 09:08 51.60894 -0.23014 8993 ft 275 kts 251°
2026-05-06 09:08 51.60247 -0.25909 8994 ft 275 kts 251°
2026-05-06 09:08 51.59599 -0.28805 8992 ft 275 kts 251°
2026-05-06 09:08 51.58950 -0.31703 8989 ft 275 kts 251°
2026-05-06 09:09 51.58326 -0.34479 8989 ft 253 kts 251°
2026-05-06 09:09 51.57749 -0.37039 8984 ft 233 kts 251°
2026-05-06 09:09 51.57206 -0.39437 8983 ft 219 kts 251°
2026-05-06 09:09 51.56686 -0.41722 8979 ft 217 kts 251°
2026-05-06 09:10 51.56177 -0.43970 8986 ft 218 kts 251°
2026-05-06 09:10 51.55636 -0.46351 9253 ft 229 kts 251°
2026-05-06 09:10 51.55114 -0.48651 10404 ft 215 kts 251°
2026-05-06 09:10 51.54588 -0.50961 11052 ft 224 kts 251°
2026-05-06 09:11 51.54051 -0.53316 11809 ft 226 kts 251°
2026-05-06 09:11 51.53509 -0.55698 12544 ft 229 kts 251°
2026-05-06 09:11 51.52955 -0.58138 13020 ft 240 kts 251°
2026-05-06 09:11 51.52380 -0.60668 12997 ft 239 kts 251°
2026-05-06 09:12 51.51820 -0.63136 12998 ft 249 kts 251°
2026-05-06 09:12 51.51190 -0.65919 13019 ft 282 kts 251°
2026-05-06 09:12 51.50498 -0.68985 13020 ft 295 kts 251°
2026-05-06 09:12 51.49796 -0.72094 13010 ft 298 kts 251°
2026-05-06 09:13 51.49086 -0.75240 13096 ft 305 kts 251°
2026-05-06 09:13 51.48373 -0.78395 14068 ft 296 kts 251°
2026-05-06 09:13 51.47672 -0.81493 14867 ft 297 kts 250°
2026-05-06 09:13 51.46955 -0.84662 15003 ft 303 kts 250°
2026-05-06 09:14 51.46221 -0.87909 15240 ft 319 kts 251°
2026-05-06 09:14 51.45475 -0.91213 15255 ft 342 kts 251°
2026-05-06 09:14 51.44675 -0.94765 15297 ft 363 kts 251°
2026-05-06 09:14 51.43814 -0.98588 15882 ft 365 kts 251°
2026-05-06 09:15 51.42950 -1.02425 16491 ft 368 kts 251°
2026-05-06 09:15 51.42074 -1.06302 17066 ft 372 kts 250°
2026-05-06 09:15 51.41154 -1.10190 17612 ft 376 kts 246°
2026-05-06 09:15 51.39600 -1.13583 18157 ft 381 kts 227°
2026-05-06 09:16 51.37738 -1.16618 18822 ft 383 kts 226°
2026-05-06 09:16 51.35842 -1.19654 19369 ft 388 kts 224°
2026-05-06 09:16 51.33559 -1.22011 19924 ft 394 kts 207°
2026-05-06 09:16 51.30931 -1.23341 20516 ft 400 kts 191°
2026-05-06 09:17 51.28143 -1.23707 21069 ft 405 kts 184°
2026-05-06 09:17 51.25321 -1.23917 21656 ft 408 kts 184°
2026-05-06 09:17 51.22470 -1.24131 22213 ft 411 kts 184°
2026-05-06 09:17 51.19605 -1.24466 22707 ft 415 kts 189°
2026-05-06 09:18 51.16801 -1.25573 23224 ft 416 kts 197°
2026-05-06 09:18 51.13999 -1.26792 23764 ft 419 kts 196°
2026-05-06 09:18 51.11163 -1.27959 24261 ft 423 kts 195°
2026-05-06 09:18 51.08306 -1.29132 24757 ft 426 kts 196°
2026-05-06 09:19 51.05434 -1.30349 25241 ft 429 kts 196°
2026-05-06 09:19 51.02544 -1.31578 25710 ft 432 kts 196°
2026-05-06 09:19 50.99627 -1.32798 26192 ft 435 kts 196°
2026-05-06 09:19 50.96727 -1.34017 26630 ft 438 kts 197°
2026-05-06 09:20 50.93887 -1.35806 27048 ft 439 kts 207°
2026-05-06 09:20 50.91157 -1.38016 27509 ft 442 kts 208°
2026-05-06 09:20 50.88408 -1.40214 27961 ft 445 kts 207°
2026-05-06 09:20 50.85625 -1.42411 28392 ft 448 kts 207°
2026-05-06 09:21 50.82829 -1.44634 28814 ft 451 kts 208°
2026-05-06 09:21 50.80019 -1.46884 29244 ft 454 kts 208°
2026-05-06 09:21 50.77188 -1.49140 29643 ft 457 kts 208°
2026-05-06 09:21 50.74334 -1.51396 30042 ft 460 kts 207°
2026-05-06 09:22 50.71465 -1.53664 30431 ft 463 kts 207°
2026-05-06 09:22 50.68574 -1.55955 30804 ft 466 kts 208°
2026-05-06 09:22 50.65676 -1.58251 31289 ft 465 kts 208°
2026-05-06 09:22 50.62794 -1.60522 31882 ft 463 kts 207°
2026-05-06 09:23 50.59910 -1.62790 32417 ft 462 kts 207°
2026-05-06 09:23 50.57038 -1.65049 32939 ft 461 kts 207°
2026-05-06 09:23 50.54174 -1.67304 33452 ft 460 kts 207°
2026-05-06 09:23 50.51314 -1.69550 33966 ft 459 kts 207°
2026-05-06 09:24 50.48461 -1.71786 34471 ft 458 kts 207°
2026-05-06 09:24 50.45612 -1.74013 34974 ft 457 kts 207°
2026-05-06 09:24 50.42771 -1.76233 35475 ft 456 kts 207°
2026-05-06 09:24 50.39937 -1.78447 35974 ft 455 kts 207°
2026-05-06 09:25 50.37101 -1.80658 36456 ft 454 kts 207°
2026-05-06 09:25 50.34272 -1.82858 36909 ft 454 kts 207°
2026-05-06 09:25 50.31443 -1.85058 37368 ft 454 kts 207°
2026-05-06 09:25 50.28613 -1.87256 37810 ft 454 kts 207°
2026-05-06 09:26 50.25784 -1.89448 38244 ft 454 kts 207°
2026-05-06 09:26 50.22953 -1.91639 38669 ft 454 kts 207°
2026-05-06 09:26 50.20117 -1.93835 39101 ft 454 kts 207°
2026-05-06 09:26 50.17285 -1.96022 39524 ft 454 kts 207°
2026-05-06 09:27 50.14453 -1.98206 39938 ft 454 kts 207°
2026-05-06 09:27 50.11620 -2.00387 40349 ft 454 kts 207°
2026-05-06 09:27 50.08787 -2.02566 40748 ft 454 kts 207°
2026-05-06 09:27 50.05991 -2.04714 41139 ft 454 kts 207°
2026-05-06 09:28 50.03119 -2.06917 41536 ft 454 kts 207°
2026-05-06 09:28 50.00322 -2.09060 41906 ft 454 kts 207°
2026-05-06 09:28 49.97477 -2.11200 42258 ft 455 kts 205°
2026-05-06 09:28 49.94593 -2.13240 42608 ft 455 kts 206°
2026-05-06 09:29 49.91727 -2.15317 42953 ft 455 kts 206°
2026-05-06 09:29 49.88862 -2.17392 43286 ft 455 kts 206°
2026-05-06 09:29 49.85988 -2.19437 43610 ft 455 kts 206°
2026-05-06 09:29 49.83111 -2.21475 43926 ft 455 kts 206°
2026-05-06 09:30 49.80239 -2.23527 44233 ft 455 kts 206°
2026-05-06 09:30 49.77367 -2.25581 44529 ft 455 kts 206°
2026-05-06 09:30 49.74492 -2.27624 44825 ft 455 kts 206°
2026-05-06 09:30 49.71613 -2.29664 45005 ft 458 kts 206°
2026-05-06 09:31 49.68695 -2.31734 44995 ft 465 kts 206°
2026-05-06 09:31 49.62729 -2.35960 45011 ft 478 kts 206°
2026-05-06 09:32 49.56609 -2.40278 45008 ft 490 kts 206°
2026-05-06 09:32 49.50342 -2.44690 45000 ft 499 kts 205°
2026-05-06 09:33 49.43979 -2.49155 45008 ft 507 kts 205°
2026-05-06 09:33 49.37521 -2.53674 45010 ft 512 kts 205°
2026-05-06 09:34 49.31006 -2.58221 45003 ft 516 kts 205°
2026-05-06 09:34 49.24453 -2.62780 45008 ft 518 kts 205°
2026-05-06 09:35 49.17890 -2.67333 45009 ft 518 kts 205°
2026-05-06 09:35 49.11321 -2.71877 45009 ft 518 kts 205°
2026-05-06 09:36 49.04757 -2.76404 45009 ft 518 kts 205°
2026-05-06 09:36 48.98190 -2.80920 45009 ft 518 kts 205°
2026-05-06 09:37 48.91624 -2.85423 45009 ft 518 kts 205°
2026-05-06 09:37 48.85054 -2.89914 45010 ft 518 kts 205°
2026-05-06 09:38 48.78526 -2.94365 45010 ft 518 kts 205°
2026-05-06 09:38 48.71949 -2.98837 45004 ft 519 kts 205°
2026-05-06 09:39 48.65362 -3.03301 45008 ft 519 kts 205°
2026-05-06 09:39 48.58777 -3.07752 45003 ft 518 kts 205°